Jianqiao current weather conditions

sailwx.info

Wind from 320 at 5 knots

Air temperature 2.0° C
Visibility: greater than 2.7 NM
Dewpoint -1.0° C
Present weather: Light snow rain. Mist.

Last reported at 2015-Jan-29 14:30 UTC.
Time now 2015-Jan-29 16:23 UTC

Location: N 30°20' E 120°14'.
View on Google Maps.

See reports from other nearby stations

  
Tides and Currents Weather Stations Pressure Air Temp Water Temp Dewpoint Dewpoint Depression Visibility Wind Speed Wind Dir Waves Ship Positions
date/time (UTC)wind fromknots sea level pressurealtimeterstation pressurevisibilityair tempwater tempwave heightnotes
2015-Jan-29 15:30 320 5 2.7 2.0 Light rain. Mist.
2015-Jan-29 15:00 320 5 2.7 2.0 Light rain. Mist.
2015-Jan-29 14:30 320 5 2.7 2.0 Light snow rain. Mist.
2015-Jan-29 14:00 310 5 2.7 2.0 Light snow rain. Mist.
2015-Jan-29 13:30 310 5 1.6 1.0 Light snow rain. Mist.
2015-Jan-29 13:00 310 5 1.6 1.0 Light snow rain. Mist.
2015-Jan-29 12:30 320 3 1.6 1.0 Light snow rain. Mist.
2015-Jan-29 12:00 320 3 1.6 1.0 Light snow rain. Mist.
2015-Jan-29 11:30 340 7 2.2 2.0 Light snow rain. Mist.
2015-Jan-29 11:00 340 5 2.2 2.0 Light rain. Mist.
2015-Jan-29 10:30 330 5 2.2 2.0 Light rain. Mist.
2015-Jan-29 10:00 2.2 2.0 Light rain. Mist.
2015-Jan-29 09:30 350 3 2.2 2.0 Light rain. Mist.
2015-Jan-29 09:00 350 5 2.7 3.0 Light snow rain. Mist.
2015-Jan-29 08:30 340 5 2.7 3.0 Light rain. Mist.
2015-Jan-29 08:00 350 3 2.7 3.0 Light rain. Mist.
2015-Jan-29 07:30 350 5 1.6 3.0 Light rain. Mist.
2015-Jan-29 07:00 350 5 1.6 3.0 Light rain. Mist.
2015-Jan-29 06:30 360 5 1.2 3.0 Light rain. Mist.
2015-Jan-29 06:00 360 5 1.2 3.0 Light rain. Mist.
2015-Jan-29 05:30 350 3 1.3 3.0 Light rain. Mist.
2015-Jan-29 05:00 020 7 1.6 3.0 Light rain. Mist.
2015-Jan-29 04:30 010 7 1.6 3.0 Light rain. Mist.
2015-Jan-29 04:00 010 5 2.2 3.0 Light rain. Mist.
2015-Jan-29 03:30 010 5 2.2 3.0 Light rain. Mist.
2015-Jan-29 03:00 350 5 1.9 3.0 Light rain. Mist.
2015-Jan-29 02:30 360 3 1.9 3.0 Light rain. Mist.
2015-Jan-29 02:00 020 5 1.9 3.0 Light rain. Mist.
2015-Jan-29 01:30 020 5 1.9 3.0 Light rain. Mist.
2015-Jan-29 01:00 360 5 1.9 3.0 Light rain. Mist.
2015-Jan-29 00:30 040 5 1.9 4.0 Light rain. Mist.
2015-Jan-29 00:00 040 5 1.9 4.0 Light rain. Mist.
2015-Jan-28 23:30 040 5 1.9 4.0 Light rain. Mist.
2015-Jan-28 23:00 030 5 1.9 3.0 Light rain. Mist.
2015-Jan-28 22:30 040 7 1.9 3.0 Light rain. Mist.
2015-Jan-28 22:00 020 5 1.9 3.0 Light rain. Mist.
2015-Jan-28 21:30 030 5 1.9 3.0 Light rain. Mist.
2015-Jan-28 21:00 020 5 1.9 3.0 Light rain. Mist.
2015-Jan-28 20:30 030 5 1.9 3.0 Light rain. Mist.
2015-Jan-28 20:00 030 5 1.5 3.0 Light rain. Mist.
2015-Jan-28 19:30 020 5 1.5 3.0 Light rain. Mist.
2015-Jan-28 19:00 010 3 1.5 4.0 Light rain. Mist.
2015-Jan-28 18:30 350 3 1.3 3.0 Light rain. Mist.
2015-Jan-28 18:00 010 3 1.6 3.0 Light rain. Mist.
2015-Jan-28 17:30 010 3 1.6 3.0 Light rain. Mist.
2015-Jan-28 17:00 020 3 1.6 3.0 Light rain. Mist.
2015-Jan-28 16:30 330 3 1.9 3.0 Light rain. Mist.
2015-Jan-28 16:00 1.9 3.0 Light rain. Mist.
2015-Jan-28 15:30 360 3 1.9 3.0 Light rain. Mist.
2015-Jan-28 15:00 350 3 1.9 3.0 Light rain. Mist.
2015-Jan-28 14:30 060 1 2.2 3.0 Light rain. Mist.
2015-Jan-28 14:00 070 1 2.2 3.0 Light rain. Mist.
2015-Jan-28 13:30 2.2 3.0 Light rain. Mist.
2015-Jan-28 13:00 2.2 3.0 Mist.
2015-Jan-28 12:30 2.2 3.0 Mist.
2015-Jan-28 12:00 2.2 3.0 Light rain. Mist.
2015-Jan-28 11:30 2.2 3.0 Light rain. Mist.
2015-Jan-28 11:00 2.2 3.0 Light rain. Mist.
2015-Jan-28 10:30 2.2 3.0 Light rain. Mist.
2015-Jan-28 10:00 2.2 3.0 Light rain. Mist.
2015-Jan-28 09:30 2.2 3.0 Light rain. Mist.
2015-Jan-28 09:00 2.2 3.0 Mist.
2015-Jan-28 08:30 2.2 3.0 Mist.
2015-Jan-28 08:00 060 3 2.2 3.0 Mist.
2015-Jan-28 07:30 040 5 2.2 2.0 Light rain. Mist.
2015-Jan-28 07:00 020 5 2.2 2.0 Light rain. Mist.
2015-Jan-28 06:30 030 5 2.2 2.0 Light rain. Mist.
2015-Jan-28 06:00 020 5 2.7 3.0 Light rain. Mist.
2015-Jan-28 05:30 020 7 3.8 3.0 Light rain.
2015-Jan-28 05:00 010 5 5.4 3.0 Light rain.
2015-Jan-28 04:30 020 5 5.4 3.0 Light ice pellets rain.
2015-Jan-28 04:00 020 5 5.4 3.0 Light ice pellets rain.
2015-Jan-28 03:30 020 5 5.4 3.0 Light ice pellets rain.
2015-Jan-28 03:00 030 7 5.4 3.0 Light ice pellets rain.
2015-Jan-28 02:30 030 5 5.4 3.0 Light ice pellets rain.
2015-Jan-28 02:00 030 7 5.4 3.0 Light ice pellets rain.
2015-Jan-28 01:30 030 5 5.4 3.0 Light ice pellets rain.
2015-Jan-28 01:00 040 7 5.4 3.0 Light ice pellets rain.
2015-Jan-28 00:30 020 5 5.4 3.0
2015-Jan-28 00:00 030 7 5.4 2.0
2015-Jan-27 23:30 030 7 5.4 2.0
2015-Jan-27 23:00 030 7 3.8 2.0
2015-Jan-27 22:30 020 5 2.7 2.0 Mist.
2015-Jan-27 22:00 020 5 2.7 2.0 Mist.
2015-Jan-27 21:30 010 5 2.7 1.0 Mist.
2015-Jan-27 21:00 030 5 3.8 1.0
2015-Jan-27 20:30 030 7 4.3 1.0 Light rain.
2015-Jan-27 20:00 040 5 4.3 1.0 Light rain.
2015-Jan-27 19:30 030 11 4.3 1.0 Light rain.
2015-Jan-27 19:00 030 7 4.3 2.0 Light snow.
2015-Jan-27 18:30 020 7 3.2 2.0 Light snow.
2015-Jan-27 18:00 030 9 3.2 1.0 Light snow.
2015-Jan-27 17:30 030 9 5.4 2.0 Light ice pellets.
2015-Jan-27 17:00 030 9 5.4 2.0 Light ice pellets.
2015-Jan-27 16:30 030 9 5.4 2.0 Light ice pellets.
2015-Jan-27 16:00 030 9 5.4 2.0 Light rain.